User: anonymous   Login
Location: Peebles
(55.6412°N, 3.1714°W)
Time: 23:13:13
(UTC+00:00)
Language:

NOAA 16 DEB - Orbit

View from above orbital plane
View from above orbital plane
View from above satellite
View from above satellite

Ground track
Ground track

The orbit data is extracted from the following two-line orbital elements,

1 41288U 00055GQ  22341.65150137  .00003892  00000-0  22120-2 0  9994
2 41288  98.9239  55.0971 0034802 326.6454  33.2524 14.10155685357267
Epoch (UTC): 07 December 2022 15:38:09
Eccentricity: 0.0034802
inclination: 98.9239°
perigee height: 833 km
apogee height: 884 km
right ascension of ascending node: 55.0971°
argument of perigee: 326.6454°
revolutions per day: 14.10155685
mean anomaly at epoch: 33.2524°
orbit number at epoch: 35726

The dashed part of the orbit path shows where the satellite is in the earth's shadow,  

DLR